When you browse on this site, cookies collect data to enhance your experience and personalize the content and advertising you see.
Visit our Privacy Policy to learn more. By continuing to use the site, you agree to this use of cookies and data.
  • In Deutschland
  • Länderverzeichnis
  • Für 7 Tage
  • Wassertemperatur
  • Satellitenkarten
  • Wetterkarte
  • Widgets
  • user-avatar
    Anmelden

    Stündliche Wetter Baotou

    Heute, 20 Januar, Sonntag

    Zeit Temperatur Niederschläge Wind Luftdruck Luftfeuchtigkeit
    00:00 -13°C° 0 mm 5 m/S 679 mmHg 48%
    01:00 -12°C° 0 mm 4 m/S 680 mmHg 47%
    02:00 -14°C° 0 mm 4 m/S 680 mmHg 47%
    03:00 -14°C° 0 mm 4 m/S 680 mmHg 47%
    04:00 -13°C° 0 mm 3 m/S 680 mmHg 46%
    05:00 -14°C° 0 mm 3 m/S 681 mmHg 47%
    06:00 -14°C° 0 mm 3 m/S 681 mmHg 47%
    07:00 -13°C° 0 mm 2 m/S 681 mmHg 46%
    08:00 -12°C° 0 mm 2 m/S 682 mmHg 43%
    09:00 -12°C° 0 mm 3 m/S 682 mmHg 39%
    10:00 -10°C° 0 mm 3 m/S 682 mmHg 35%
    11:00 -10°C° 0 mm 3 m/S 682 mmHg 32%
    12:00 -10°C° 0 mm 4 m/S 681 mmHg 29%
    13:00 -9°C° 0 mm 4 m/S 681 mmHg 26%
    14:00 -9°C° 0 mm 4 m/S 681 mmHg 27%
    15:00 -9°C° 0 mm 4 m/S 680 mmHg 27%
    16:00 -9°C° 0 mm 4 m/S 680 mmHg 28%
    17:00 -9°C° 0 mm 3 m/S 680 mmHg 30%
    18:00 -10°C° 0 mm 3 m/S 680 mmHg 33%
    19:00 -9°C° 0 mm 2 m/S 680 mmHg 35%
    20:00 -10°C° 0 mm 2 m/S 679 mmHg 36%
    21:00 -10°C° 0 mm 2 m/S 679 mmHg 37%
    22:00 -10°C° 0 mm 2 m/S 679 mmHg 38%
    23:00 -10°C° 0 mm 2 m/S 678 mmHg 39%

    Morgen, 21 Januar, Montag

    Zeit Temperatur Niederschläge Wind Luftdruck Luftfeuchtigkeit
    00:00 -12°C° 0 mm 2 m/S 678 mmHg 39%
    01:00 -12°C° 0 mm 2 m/S 678 mmHg 40%
    02:00 -12°C° 0 mm 2 m/S 677 mmHg 41%
    03:00 -12°C° 0 mm 2 m/S 677 mmHg 41%
    04:00 -12°C° 0 mm 2 m/S 676 mmHg 41%
    05:00 -13°C° 0 mm 2 m/S 676 mmHg 42%
    06:00 -13°C° 0 mm 2 m/S 676 mmHg 43%
    07:00 -13°C° 0 mm 2 m/S 676 mmHg 43%
    08:00 -12°C° 0 mm 2 m/S 676 mmHg 40%
    09:00 -9°C° 0 mm 2 m/S 676 mmHg 37%
    10:00 -9°C° 0 mm 3 m/S 677 mmHg 33%
    11:00 -8°C° 0 mm 3 m/S 676 mmHg 31%
    12:00 -7°C° 0 mm 3 m/S 675 mmHg 29%
    13:00 -7°C° 0 mm 4 m/S 675 mmHg 27%
    14:00 -6°C° 0 mm 3 m/S 675 mmHg 28%
    15:00 -6°C° 0 mm 3 m/S 675 mmHg 29%
    16:00 -6°C° 0 mm 3 m/S 674 mmHg 29%
    17:00 -6°C° 0 mm 2 m/S 674 mmHg 32%
    18:00 -7°C° 0 mm 2 m/S 674 mmHg 35%
    19:00 -7°C° 0 mm 2 m/S 674 mmHg 39%
    20:00 -8°C° 0 mm 2 m/S 674 mmHg 41%
    21:00 -8°C° 0 mm 2 m/S 674 mmHg 43%
    22:00 -8°C° 0 mm 2 m/S 673 mmHg 45%
    23:00 -9°C° 0 mm 2 m/S 673 mmHg 48%

    übermorgen, 22 Januar, Dienstag

    Zeit Temperatur Niederschläge Wind Luftdruck Luftfeuchtigkeit
    00:00 -9°C° 0 mm 2 m/S 673 mmHg 51%
    01:00 -9°C° 0 mm 2 m/S 673 mmHg 54%
    02:00 -9°C° 0 mm 2 m/S 672 mmHg 56%
    03:00 -9°C° 0 mm 2 m/S 672 mmHg 58%
    04:00 -10°C° 0 mm 2 m/S 672 mmHg 60%
    05:00 -10°C° 0 mm 2 m/S 672 mmHg 60%
    06:00 -10°C° 0 mm 2 m/S 672 mmHg 60%
    07:00 -10°C° 0 mm 2 m/S 672 mmHg 61%
    08:00 -8°C° 0 mm 2 m/S 673 mmHg 53%
    09:00 -7°C° 0 mm 2 m/S 673 mmHg 45%
    10:00 -5°C° 0 mm 2 m/S 673 mmHg 38%
    11:00 -4°C° 0 mm 2 m/S 673 mmHg 33%
    12:00 -3°C° 0 mm 2 m/S 673 mmHg 28%
    13:00 -2°C° 0 mm 2 m/S 672 mmHg 24%
    14:00 -2°C° 0 mm 2 m/S 672 mmHg 24%
    15:00 -2°C° 0 mm 2 m/S 672 mmHg 24%
    16:00 -3°C° 0 mm 2 m/S 672 mmHg 24%
    17:00 -2°C° 0 mm 1 m/S 672 mmHg 26%
    18:00 -2°C° 0 mm 1 m/S 672 mmHg 28%
    19:00 -3°C° 0 mm 1 m/S 672 mmHg 29%
    20:00 -4°C° 0 mm 1 m/S 672 mmHg 30%
    21:00 -5°C° 0 mm 0 m/S 672 mmHg 30%
    22:00 -6°C° 0 mm 0 m/S 672 mmHg 31%
    23:00 -6°C° 0 mm 0 m/S 672 mmHg 31%

    23 Januar, Mittwoch

    Zeit Temperatur Niederschläge Wind Luftdruck Luftfeuchtigkeit
    00:00 -6°C° 0 mm 0 m/S 671 mmHg 32%
    01:00 -7°C° 0 mm 0 m/S 671 mmHg 33%
    02:00 -7°C° 0 mm 1 m/S 671 mmHg 33%
    03:00 -7°C° 0 mm 1 m/S 671 mmHg 33%
    04:00 -7°C° 0 mm 1 m/S 670 mmHg 33%
    05:00 -8°C° 0 mm 2 m/S 671 mmHg 33%
    06:00 -8°C° 0 mm 2 m/S 671 mmHg 33%
    07:00 -8°C° 0 mm 2 m/S 671 mmHg 34%
    08:00 -7°C° 0 mm 2 m/S 671 mmHg 30%
    09:00 -6°C° 0 mm 2 m/S 672 mmHg 27%
    10:00 -4°C° 0 mm 2 m/S 672 mmHg 23%
    11:00 -3°C° 0 mm 2 m/S 671 mmHg 21%
    12:00 -2°C° 0 mm 2 m/S 671 mmHg 19%
    13:00 -1°C° 0 mm 2 m/S 670 mmHg 17%
    14:00 -2°C° 0 mm 2 m/S 670 mmHg 17%
    15:00 -2°C° 0 mm 2 m/S 670 mmHg 18%
    16:00 -2°C° 0 mm 2 m/S 670 mmHg 18%
    17:00 -1°C° 0 mm 1 m/S 670 mmHg 19%
    18:00 -2°C° 0 mm 1 m/S 670 mmHg 20%
    19:00 -3°C° 0 mm 1 m/S 670 mmHg 21%
    20:00 -3°C° 0 mm 1 m/S 671 mmHg 21%
    21:00 -3°C° 0 mm 1 m/S 671 mmHg 22%
    22:00 -4°C° 0 mm 1 m/S 671 mmHg 22%
    23:00 -4°C° 0 mm 1 m/S 671 mmHg 22%

    24 Januar, Donnerstag

    Zeit Temperatur Niederschläge Wind Luftdruck Luftfeuchtigkeit
    00:00 -6°C° 0 mm 2 m/S 672 mmHg 21%
    01:00 -6°C° 0 mm 2 m/S 672 mmHg 21%
    02:00 -7°C° 0 mm 3 m/S 672 mmHg 22%
    03:00 -8°C° 0 mm 3 m/S 673 mmHg 24%
    04:00 -8°C° 0 mm 3 m/S 673 mmHg 25%
    05:00 -10°C° 0 mm 4 m/S 674 mmHg 26%
    06:00 -10°C° 0 mm 4 m/S 674 mmHg 27%
    07:00 -11°C° 0 mm 4 m/S 675 mmHg 28%
    08:00 -10°C° 0 mm 4 m/S 675 mmHg 27%
    09:00 -9°C° 0 mm 4 m/S 676 mmHg 25%
    10:00 -8°C° 0 mm 4 m/S 677 mmHg 24%
    11:00 -7°C° 0 mm 4 m/S 677 mmHg 22%
    12:00 -4°C° 0 mm 4 m/S 677 mmHg 21%
    13:00 -3°C° 0 mm 4 m/S 676 mmHg 20%
    14:00 -4°C° 0 mm 4 m/S 677 mmHg 22%
    15:00 -4°C° 0 mm 4 m/S 677 mmHg 23%
    16:00 -4°C° 0 mm 4 m/S 677 mmHg 25%
    17:00 -5°C° 0 mm 4 m/S 677 mmHg 30%
    18:00 -7°C° 0 mm 4 m/S 678 mmHg 34%
    19:00 -8°C° 0 mm 4 m/S 678 mmHg 39%
    20:00 -9°C° 0 mm 4 m/S 679 mmHg 42%
    21:00 -8°C° 0 mm 3 m/S 679 mmHg 45%
    22:00 -8°C° 0 mm 3 m/S 679 mmHg 47%
    23:00 -8°C° 0 mm 2 m/S 679 mmHg 49%

    25 Januar, Freitag

    Zeit Temperatur Niederschläge Wind Luftdruck Luftfeuchtigkeit
    00:00 -8°C° 0 mm 2 m/S 679 mmHg 51%
    01:00 -9°C° 0 mm 2 m/S 679 mmHg 52%
    02:00 -9°C° 0 mm 2 m/S 679 mmHg 52%
    03:00 -9°C° 0 mm 2 m/S 679 mmHg 53%
    04:00 -8°C° 0 mm 1 m/S 679 mmHg 53%
    05:00 -9°C° 0 mm 1 m/S 680 mmHg 53%
    06:00 -9°C° 0 mm 1 m/S 680 mmHg 53%
    07:00 -9°C° 0 mm 1 m/S 680 mmHg 53%
    08:00 -8°C° 0 mm 1 m/S 680 mmHg 48%
    09:00 -7°C° 0 mm 1 m/S 681 mmHg 43%
    10:00 -6°C° 0 mm 1 m/S 681 mmHg 38%
    11:00 -4°C° 0 mm 1 m/S 680 mmHg 34%
    12:00 -3°C° 0 mm 1 m/S 680 mmHg 31%
    13:00 -2°C° 0 mm 1 m/S 679 mmHg 28%
    14:00 -2°C° 0 mm 1 m/S 679 mmHg 28%
    15:00 -2°C° 0 mm 1 m/S 679 mmHg 27%
    16:00 -2°C° 0 mm 1 m/S 679 mmHg 27%
    17:00 -3°C° 0 mm 1 m/S 679 mmHg 29%
    18:00 -4°C° 0 mm 1 m/S 679 mmHg 31%
    19:00 -4°C° 0 mm 1 m/S 679 mmHg 32%
    20:00 -6°C° 0 mm 1 m/S 679 mmHg 33%
    21:00 -6°C° 0 mm 1 m/S 679 mmHg 34%
    22:00 -6°C° 0 mm 1 m/S 678 mmHg 35%
    23:00 -7°C° 0 mm 1 m/S 678 mmHg 35%
    Mehr zeigen